Date String (YYYY-MM-DD hh:mm:ss) UTC,Instrument flags,absolute air pressure of the measurement (hPa),sample flow rate (lpm),inlet stack bypass flow (lpm),air temperature of the measurement (°C),ambient temperature measured by the external sensor (°C),aerosol sample conditioner tube jacket temperature (°C),OPC LED temperature (°C),internal box temperature (°C),relative humidity of the measurement (%),span deviation,mass concentration of particles derived from Lorenz-Mie calculation of OPC scattering (μg/m³),mass concentration of particles derived from Lorenz-Mie calculation of OPC scattering (μg/m³),mass concentration of particles derived from Lorenz-Mie calculation of OPC scattering (μg/m³)
DateTimeUTC,F1_M11,P_M11,Q1_M11,Q2_M11,T1_M11,T2_M11,T3_M11,T4_M11,T5_M11,U1_M11,ZSPAN_M11,X0_M11,X2_M11,X1_M11
2024-03-02 23:00:00,SystemResetWarning,0812.1,5.00,000.00,025.4,024.8,000.0,033.6,027.3,05.3,0000.0,0002.66,0000.50,0000.31
2024-03-02 23:01:00,SystemResetWarning,0812.0,5.00,000.00,025.5,024.8,000.0,033.6,027.3,05.3,0000.0,0002.65,0000.51,0000.31
2024-03-02 23:02:00,SystemResetWarning,0812.0,5.01,000.00,025.5,024.9,000.0,033.6,027.3,05.3,0000.0,0002.60,0000.51,0000.30
2024-03-02 23:03:00,SystemResetWarning,0812.0,5.01,000.00,025.5,024.9,000.0,033.7,027.4,05.2,0000.0,0002.39,0000.52,0000.30
2024-03-02 23:04:00,SystemResetWarning,0812.0,5.00,000.00,025.5,024.9,000.0,033.7,027.4,05.2,0000.0,0002.47,0000.52,0000.29
2024-03-02 23:05:00,SystemResetWarning,0812.0,5.00,000.00,025.6,024.9,000.0,033.7,027.4,05.2,0000.0,0002.44,0000.51,0000.29
2024-03-02 23:06:00,SystemResetWarning,0812.0,4.99,000.00,025.6,024.9,000.0,033.8,027.4,05.2,0000.0,0002.43,0000.50,0000.28
2024-03-02 23:07:00,SystemResetWarning,0812.0,4.99,000.00,025.6,024.9,000.0,033.8,027.4,05.3,0000.0,0002.68,0000.51,0000.27
2024-03-02 23:08:00,SystemResetWarning,0812.0,5.00,000.00,025.6,024.9,000.0,033.8,027.4,05.3,0000.0,0002.96,0000.49,0000.27
2024-03-02 23:09:00,SystemResetWarning,0812.1,5.00,000.00,025.6,024.9,000.0,033.8,027.4,05.4,0000.0,0002.98,0000.50,0000.26
2024-03-02 23:10:00,SystemResetWarning,0812.0,5.00,000.00,025.7,025.0,000.0,033.8,027.5,05.5,0000.0,0005.00,0000.55,0000.27
2024-03-02 23:11:00,SystemResetWarning,0812.0,5.00,000.00,025.7,025.0,000.0,033.9,027.5,05.4,0000.0,0004.77,0000.54,0000.28
2024-03-02 23:12:00,SystemResetWarning,0812.0,5.00,000.00,025.7,025.0,000.0,033.9,027.5,05.5,0000.0,0004.80,0000.57,0000.28
2024-03-02 23:13:00,SystemResetWarning,0812.0,5.00,000.00,025.7,025.0,000.0,033.9,027.6,05.4,0000.0,0004.82,0000.57,0000.29
2024-03-02 23:14:00,SystemResetWarning,0812.0,5.00,000.00,025.7,025.0,000.0,033.9,027.5,05.4,0000.0,0004.77,0000.55,0000.29
2024-03-02 23:15:00,SystemResetWarning,0812.0,5.00,000.00,025.7,025.0,000.0,034.0,027.6,05.4,0000.0,0004.71,0000.56,0000.30
2024-03-02 23:16:00,SystemResetWarning,0811.9,5.01,000.00,025.8,025.0,000.0,034.0,027.6,05.3,0000.0,0004.89,0000.64,0000.31
2024-03-02 23:17:00,SystemResetWarning,0811.9,5.00,000.00,025.8,025.1,000.0,034.0,027.6,05.3,0000.0,0005.66,0000.68,0000.31
2024-03-02 23:18:00,SystemResetWarning,0811.9,4.99,000.00,025.8,025.1,000.0,034.0,027.6,05.3,0000.0,0005.89,0000.71,0000.32
2024-03-02 23:19:00,SystemResetWarning,0811.8,4.99,000.00,025.8,025.1,000.0,034.0,027.6,05.4,0000.0,0004.93,0000.73,0000.33
2024-03-02 23:20:00,SystemResetWarning,0811.8,5.00,000.00,025.8,025.1,000.0,034.0,027.6,05.5,0000.0,0005.70,0000.74,0000.33
2024-03-02 23:21:00,SystemResetWarning,0811.8,5.00,000.00,025.8,025.1,000.0,034.0,027.7,05.4,0000.0,0004.63,0000.73,0000.34
2024-03-02 23:22:00,SystemResetWarning,0811.8,5.00,000.00,025.8,025.1,000.0,034.1,027.7,05.4,0000.0,0005.91,0000.73,0000.34
2024-03-02 23:23:00,SystemResetWarning,0811.8,5.00,000.00,025.9,025.1,000.0,034.1,027.7,05.4,0000.0,0005.85,0000.71,0000.34
2024-03-02 23:24:00,SystemResetWarning,0811.8,5.01,000.00,025.9,025.1,000.0,034.1,027.7,05.4,0000.0,0005.81,0000.68,0000.33
2024-03-02 23:25:00,SystemResetWarning,0811.8,5.00,000.00,025.9,025.1,000.0,034.1,027.7,05.4,0000.0,0006.06,0000.70,0000.33
2024-03-02 23:26:00,SystemResetWarning,0811.8,5.00,000.00,025.9,025.1,000.0,034.1,027.7,05.5,0000.0,0006.72,0000.74,0000.33
2024-03-02 23:27:00,SystemResetWarning,0811.8,5.00,000.00,025.9,025.1,000.0,034.1,027.7,05.5,0000.0,0007.06,0000.77,0000.32
2024-03-02 23:28:00,SystemResetWarning,0811.8,5.00,000.00,025.9,025.1,000.0,034.1,027.7,05.6,0000.0,0006.28,0000.75,0000.32
2024-03-02 23:29:00,SystemResetWarning,0811.8,5.00,000.00,025.9,025.1,000.0,034.1,027.7,05.6,0000.0,0005.49,0000.71,0000.32
2024-03-02 23:30:00,SystemResetWarning,0811.8,5.00,000.00,025.9,025.1,000.0,034.1,027.7,05.6,0000.0,0006.26,0000.68,0000.31
2024-03-02 23:31:00,SystemResetWarning,0811.8,5.00,000.00,025.9,025.1,000.0,034.1,027.7,05.5,0000.0,0005.88,0000.68,0000.31
2024-03-02 23:32:00,SystemResetWarning,0811.7,5.00,000.00,025.9,025.1,000.0,034.1,027.7,05.4,0000.0,0005.60,0000.67,0000.31
2024-03-02 23:33:00,SystemResetWarning,0811.7,5.00,000.00,025.9,025.1,000.0,034.2,027.7,05.5,0000.0,0004.31,0000.69,0000.31
2024-03-02 23:34:00,SystemResetWarning,0811.7,5.00,000.00,025.9,025.1,000.0,034.2,027.7,05.5,0000.0,0004.98,0000.72,0000.31
2024-03-02 23:35:00,SystemResetWarning,0811.7,5.00,000.00,025.9,025.1,000.0,034.2,027.7,05.4,0000.0,0006.92,0000.78,0000.33
2024-03-02 23:36:00,SystemResetWarning,0811.7,5.00,000.00,025.9,025.1,000.0,034.2,027.7,05.5,0000.0,0007.12,0000.77,0000.33
2024-03-02 23:37:00,SystemResetWarning,0811.7,5.00,000.00,025.9,025.1,000.0,034.2,027.7,05.6,0000.0,0007.41,0000.75,0000.33
2024-03-02 23:38:00,SystemResetWarning,0811.8,5.00,000.00,025.9,025.1,000.0,034.2,027.7,05.6,0000.0,0007.70,0000.68,0000.33
2024-03-02 23:39:00,SystemResetWarning,0811.7,5.00,000.00,025.9,025.1,000.0,034.2,027.7,05.6,0000.0,0007.80,0000.69,0000.33
2024-03-02 23:40:00,SystemResetWarning,0811.7,5.00,000.00,025.9,025.1,000.0,034.2,027.7,05.5,0000.0,0007.80,0000.70,0000.33
2024-03-02 23:41:00,SystemResetWarning,0811.7,5.00,000.00,025.9,025.1,000.0,034.2,027.7,05.5,0000.0,0007.89,0000.73,0000.34
2024-03-02 23:42:00,SystemResetWarning,0811.7,5.00,000.00,025.9,025.1,000.0,034.2,027.7,05.5,0000.0,0007.81,0000.75,0000.35
2024-03-02 23:43:00,SystemResetWarning,0811.8,5.01,000.00,026.0,025.1,000.0,034.2,027.7,05.5,0000.0,0007.60,0000.76,0000.34
2024-03-02 23:44:00,SystemResetWarning,0811.7,5.00,000.00,025.9,025.1,000.0,034.3,027.7,05.6,0000.0,0007.60,0000.75,0000.33
2024-03-02 23:45:00,SystemResetWarning,0811.7,5.01,000.00,025.9,025.1,000.0,034.3,027.7,05.7,0000.0,0007.25,0000.73,0000.33
2024-03-02 23:46:00,SystemResetWarning,0811.6,5.00,000.00,025.9,025.1,000.0,034.3,027.7,05.5,0000.0,0005.65,0000.74,0000.32
2024-03-02 23:47:00,SystemResetWarning,0811.7,5.01,000.00,025.9,025.1,000.0,034.3,027.7,05.6,0000.0,0005.32,0000.76,0000.33
2024-03-02 23:48:00,SystemResetWarning,0811.7,5.00,000.00,025.9,025.0,000.0,034.3,027.7,05.6,0000.0,0004.11,0000.75,0000.33
2024-03-02 23:49:00,SystemResetWarning,0811.7,4.99,000.00,025.9,025.0,000.0,034.3,027.7,05.7,0000.0,0003.51,0000.78,0000.32
2024-03-02 23:50:00,SystemResetWarning,0811.6,5.00,000.00,025.9,025.0,000.0,034.3,027.6,05.6,0000.0,0003.32,0000.76,0000.33
2024-03-02 23:51:00,SystemResetWarning,0811.7,4.99,000.00,025.9,025.0,000.0,034.3,027.7,05.6,0000.0,0003.61,0000.76,0000.33
2024-03-02 23:52:00,SystemResetWarning,0811.7,5.01,000.00,025.9,025.0,000.0,034.3,027.6,05.5,0000.0,0003.05,0000.74,0000.33
2024-03-02 23:53:00,SystemResetWarning,0811.7,5.02,000.00,025.9,025.0,000.0,034.3,027.6,05.5,0000.0,0002.62,0000.74,0000.32
2024-03-02 23:54:00,SystemResetWarning,0811.7,5.00,000.00,025.9,025.0,000.0,034.3,027.6,05.5,0000.0,0002.52,0000.72,0000.32
2024-03-02 23:55:00,SystemResetWarning,0811.6,4.99,000.00,025.8,025.0,000.0,034.3,027.6,05.6,0000.0,0003.33,0000.72,0000.32
2024-03-02 23:56:00,SystemResetWarning,0811.6,4.99,000.00,025.8,025.0,000.0,034.3,027.6,05.6,0000.0,0003.30,0000.76,0000.33
2024-03-02 23:57:00,SystemResetWarning,0811.6,5.00,000.00,025.8,024.9,000.0,034.3,027.6,05.6,0000.0,0003.17,0000.75,0000.33
2024-03-02 23:58:00,SystemResetWarning,0811.6,5.01,000.00,025.8,024.9,000.0,034.3,027.6,05.6,0000.0,0003.19,0000.74,0000.33
2024-03-02 23:59:00,SystemResetWarning,0811.6,5.00,000.00,025.8,024.9,000.0,034.3,027.6,05.6,0000.0,0003.18,0000.73,0000.33
